sat.trackr.live / text

‹ back to catalog

AMC-14

NORAD 32708 · 2008-011A

PAYLOAD ACTIVE UNKNOWN

§ Identity

Operator
Country
US
Launch date
2008-03-14
Launch site
TYMSC
Launch vehicle
Mass (kg)
RCS (m²)
13.11

Purposes: comms

External: N2YO · Heavens-Above · Gunter

§ Orbital elements

Epoch: 2026-09-19T20:02:54.772224Z

Period
1,433.73 min
Inclination
24.1188°
Eccentricity
0.0035117
Mean motion
1.00437207 rev/d
Perigee alt
35,592.4 km
Apogee alt
35,888.2 km
Semi-major
42,118.4 km
B*
0.0000e+0
RAAN
19.3758°
Arg perigee
1.3884°
Mean anomaly
34.2450°
Rev number
6,912

§ Raw data

AMC-141 32708U 08011A   26262.83535616 -.00000358  00000+0  00000+0 0  99902 32708  24.1188  19.3758 0035117   1.3884  34.2450  1.00437207 69120

JSON: /api/v1/satellites/32708 · /tle

For live sub-satellite position, see the globe view (requires WebGL).

§ Visibility from observer

Set your observer location to see the next 7 days of passes ≥ 10°. The values pass through the URL so the page stays shareable.

No JS? Fill the form by hand. The geolocation button needs JavaScript.